www.pogodaiklimat.ru

Погода и климат >> Архив погоды >> Япония >> Иидзука


ПОГОДА в Иидзуке

  • Прогноз погоды в Иидзуке
  • Монитор погоды в Иидзуке

АРХИВ ПОГОДЫ в Иидзуке

Время (UTC), дата Ветер
(напр.,м/с)
 
Видим.   Явления Облачность Т
(С)
Тd
(С)
f
(%)
Тe
(С)
Тes
(С)
Комфортность P
(гПа)
Po
(гПа)
Тmin
(С)
Tmax
(С)
R
(мм)
R24
(мм)
S
(см)
01 9.06 СВ 2 13 км н/о +22.0 +17.4 75 +26 +26 душно 1005.3 1000.9
02 9.06 В 2 16 км н/о +23.1 +17.6 71 +28 +28 душно 1004.8 1000.5
03 9.06 В 2 15 км н/о +24.7 +17.7 65 +29 +29 душно 1004.0 999.7
04 9.06 СЗ 3 20 км н/о +24.8 +17.5 64 +29 +29 душно 1003.2 998.9
05 9.06 С 3 20 км н/о +25.3 +18.0 64 +30 +30 душно 1002.9 998.6
06 9.06 С 3 20 км н/о +24.6 +17.4 64 +29 +29 душно 1002.6 998.3
07 9.06 С 5 20 км н/о +23.4 +16.9 67 +29 +29 душно 1003.0 998.7
08 9.06 С 4 20 км н/о +21.4 +16.4 73 +25 +25 комфорт 1003.6 999.2
09 9.06 СЗ 4 20 км н/о +20.6 +16.0 75 +24 +24 комфорт 1003.7 999.3
10 9.06 СЗ 3 20 км н/о +20.1 +15.8 76 +23 +23 комфорт 1003.7 999.3
11 9.06 З 2 20 км н/о +19.5 +15.8 79 +22 +22 комфорт 1003.9 999.5
12 9.06 З 2 20 км н/о +19.5 +15.8 79 +22 +22 комфорт 1004.4 1000.0 +26.1
13 9.06 ЮЗ 1 20 км н/о +19.6 +15.9 79 +23 +23 комфорт 1004.3 999.9
14 9.06 С 1 20 км н/о +19.2 +16.1 82 +22 +22 комфорт 1004.3 999.9
15 9.06 СВ 1 20 км н/о +19.1 +16.3 84 +22 +22 комфорт 1004.3 999.9
16 9.06 СВ 1 20 км н/о +18.7 +16.5 87 +21 +21 комфорт 1003.9 999.5
17 9.06 СЗ 1 20 км н/о +18.3 +16.8 91 +20 +20 1004.0 999.6
18 9.06 СЗ 1 20 км н/о +18.9 +16.7 87 +21 +21 комфорт 1003.8 999.4
19 9.06 СЗ 1 16 км н/о +18.7 +16.5 87 +21 +21 комфорт 1004.1 999.7
20 9.06 СЗ 1 16 км н/о +18.6 +16.4 87 +21 +21 комфорт 1004.3 999.9
21 9.06 С 1 17 км н/о +18.8 +16.4 86 +21 +21 комфорт 1004.6 1000.2
22 9.06 С 1 17 км н/о +19.2 +16.6 85 +22 +22 комфорт 1004.8 1000.4
23 9.06 С 2 17 км н/о +19.6 +16.8 84 +23 +23 комфорт 1004.9 1000.5
00 10.06 С 1 19 км н/о +20.8 +16.6 77 +25 +25 комфорт 1004.9 1000.5 +18.3
01 10.06 С 4 18 км н/о +22.1 +15.2 65 +26 +26 душно 1004.8 1000.4
02 10.06 СЗ 4 20 км н/о +23.7 +16.0 62 +27 +27 жарко 1004.5 1000.2
03 10.06 СЗ 4 20 км н/о +24.4 +16.2 60 +28 +28 душно 1004.3 1000.0
04 10.06 С 5 20 км н/о +24.1 +15.9 60 +27 +27 жарко 1004.1 999.8
05 10.06 С 5 20 км н/о +23.9 +15.2 58 +27 +27 жарко 1004.3 1000.0
06 10.06 С 4 20 км н/о +23.2 +15.3 61 +27 +27 душно 1004.5 1000.2
07 10.06 С 5 20 км н/о +22.9 +15.0 61 +27 +27 душно 1004.0 999.7
08 10.06 СЗ 4 20 км н/о +22.1 +15.2 65 +26 +26 душно 1004.2 999.8
09 10.06 С 6 20 км н/о +21.3 +14.7 66 +24 +24 комфорт 1004.3 999.9
10 10.06 С 3 20 км н/о +20.2 +14.6 70 +23 +23 комфорт 1004.7 1000.3
11 10.06 СЗ 3 20 км н/о +19.3 +14.6 74 +21 +21 комфорт 1005.4 1001.0
12 10.06 СЗ 2 20 км н/о +18.9 +14.8 77 +21 +21 комфорт 1006.1 1001.7 +25.2
13 10.06 СЗ 2 20 км н/о +18.7 +14.6 77 +20 +20 1006.9 1002.5
14 10.06 СЗ 2 20 км н/о +18.2 +14.5 79 +19 +19 1007.2 1002.8
15 10.06 З 1 20 км н/о +17.7 +15.2 85 +19 +19 1007.2 1002.8
16 10.06 С 1 20 км н/о +17.4 +15.2 87 +18 +18 1006.9 1002.5
17 10.06 Ю 1 19 км н/о +16.8 +15.2 90 +18 +18 1007.0 1002.5
18 10.06 ЮВ 2 17 км н/о +16.5 +15.0 91 +17 +17 1006.9 1002.4
19 10.06 ЮВ 1 15 км н/о +16.4 +15.1 92 +17 +17 1006.7 1002.2
20 10.06 ЮВ 1 13 км н/о +15.9 +14.9 94 +17 +17 1007.3 1002.8
21 10.06 ЮВ 1 11 км н/о +16.3 +15.2 93 +17 +17 1007.5 1003.0
22 10.06 СВ 1 16 км н/о +18.0 +15.3 84 +19 +19 1007.6 1003.2
23 10.06 С 3 20 км н/о +20.1 +15.1 73 +23 +23 комфорт 1007.9 1003.5
00 11.06 СЗ 3 20 км н/о +21.1 +14.5 66 +24 +24 комфорт 1007.7 1003.3 +15.7
01 11.06 СЗ 4 20 км н/о +21.9 +13.8 60 +25 +25 комфорт 1007.6 1003.2
02 11.06 С 4 20 км н/о +23.3 +14.3 57 +27 +27 душно 1007.2 1002.9
03 11.06 С 5 20 км н/о +23.2 +14.5 58 +27 +27 душно 1007.0 1002.7
04 11.06 С 5 20 км н/о +23.6 +14.3 56 +26 +26 жарко 1006.9 1002.6
05 11.06 СЗ 5 20 км н/о +23.5 +14.5 57 +26 +26 жарко 1006.8 1002.5
06 11.06 С 6 20 км н/о +23.3 +14.6 58 +27 +27 душно 1006.7 1002.4
07 11.06 СЗ 6 20 км н/о +22.5 +14.6 61 +26 +26 жарко 1006.7 1002.3
08 11.06 СЗ 5 20 км н/о +22.1 +15.2 65 +26 +26 душно 1006.8 1002.4
09 11.06 С 4 20 км н/о +20.9 +14.6 67 +24 +24 комфорт 1007.2 1002.8
10 11.06 С 4 20 км н/о +19.5 +15.2 76 +21 +21 комфорт 1007.5 1003.1
11 11.06 СЗ 3 20 км н/о +18.7 +15.4 81 +20 +20 1008.1 1003.7
12 11.06 С 2 20 км н/о +18.2 +15.3 83 +19 +19 1008.5 1004.1 +24.2
13 11.06 С 2 20 км н/о +18.0 +15.5 85 +19 +19 1008.9 1004.5
14 11.06 З 1 18 км н/о +17.6 +15.4 87 +19 +19 1009.3 1004.8
15 11.06 С 2 16 км н/о +17.3 +15.3 88 +18 +18 1009.1 1004.6
16 11.06 С 1 13 км н/о +16.9 +15.4 91 +18 +18 1009.1 1004.6
17 11.06 Ю 1 13 км н/о +16.3 +15.2 93 +18 +18 1009.0 1004.5
18 11.06 ЮВ 2 12 км н/о +16.3 +15.2 93 +17 +17 1009.1 1004.6
19 11.06 ЮВ 2 11 км н/о +16.4 +15.1 92 +16 +16 1009.2 1004.7
20 11.06 Ю 1 8000 м дымка н/о +16.7 +15.4 92 +18 +18 1009.5 1005.0
21 11.06 З 1 10 км н/о +17.2 +15.4 89 +19 +19 1009.6 1005.1
23 11.06 ЮВ 1 17 км н/о +19.7 +16.2 80 +23 +23 комфорт 1009.9 1005.5
00 12.06 С 4 20 км {дождь} н/о +20.7 +15.7 73 +24 +24 комфорт 1010.0 1005.6 +16.0 0.0
01 12.06 С 3 20 км н/о +21.3 +16.1 72 +25 +25 комфорт 1010.2 1005.8
02 12.06 С 3 20 км н/о +22.0 +15.1 65 +26 +26 душно 1010.5 1006.1
03 12.06 С 3 20 км н/о +23.4 +15.7 62 +28 +28 душно 1010.0 1005.6
04 12.06 С 5 20 км н/о +23.1 +15.2 61 +27 +27 душно 1009.6 1005.2
05 12.06 СЗ 5 20 км н/о +23.3 +15.4 61 +28 +28 душно 1009.4 1005.0
06 12.06 СЗ 5 20 км н/о +24.4 +16.4 61 +28 +28 душно 1008.8 1004.5
07 12.06 С 5 20 км н/о +23.5 +15.6 61 +27 +27 душно 1008.6 1004.3
08 12.06 СЗ 5 20 км н/о +23.2 +15.8 63 +28 +28 душно 1008.8 1004.4
09 12.06 С 4 20 км н/о +22.4 +16.2 68 +27 +27 душно 1009.2 1004.8
10 12.06 СЗ 4 20 км н/о +20.9 +16.1 74 +25 +25 комфорт 1009.6 1005.2
11 12.06 СЗ 3 20 км н/о +19.5 +16.0 80 +22 +22 комфорт 1010.3 1005.9
12 12.06 СЗ 2 20 км н/о +19.1 +16.0 82 +21 +21 комфорт 1010.7 1006.3 +24.9
13 12.06 СЗ 1 20 км н/о +18.6 +15.9 84 +21 +21 комфорт 1011.0 1006.6
14 12.06 З 2 19 км н/о +18.3 +15.9 86 +20 +20 1010.8 1006.4
15 12.06 Ю 1 18 км н/о +17.3 +15.7 90 +18 +18 1010.7 1006.2
16 12.06 ЮВ 1 16 км н/о +16.9 +15.8 93 +18 +18 1010.7 1006.2
17 12.06 Ю 2 16 км н/о +16.5 +15.4 93 +17 +17 1010.4 1005.9
18 12.06 ЮВ 1 14 км н/о +16.1 +15.3 95 +17 +17 1010.2 1005.7
19 12.06 Ю 1 11 км н/о +15.7 +15.2 97 +17 +17 1010.3 1005.8
20 12.06 ЮВ 1 10 км н/о +15.2 +14.9 98 +16 +16 1010.7 1006.2
21 12.06 ЮВ 1 14 км н/о +15.7 +14.9 95 +16 +16 1011.1 1006.6
22 12.06 ЮВ 1 16 км н/о +17.4 +15.4 88 +18 +18 1011.4 1006.9
23 12.06 В 1 16 км н/о +20.3 +16.2 77 +25 +25 комфорт 1011.6 1007.2
00 13.06 ЮВ 3 20 км н/о +22.2 +16.5 70 +26 +26 душно 1011.6 1007.2 +15.2
01 13.06 В 2 20 км н/о +24.2 +16.5 62 +28 +28 душно 1010.9 1006.6
02 13.06 В 2 20 км н/о +25.9 +16.2 55 +29 +29 душно 1010.4 1006.1
03 13.06 СВ 2 20 км н/о +26.9 +14.3 46 +29 +29 жарко 1009.8 1005.5
04 13.06 СВ 3 20 км н/о +27.8 +15.8 48 +31 +31 душно 1009.1 1004.8
05 13.06 В 3 20 км н/о +27.5 +15.5 48 +30 +30 жарко 1008.9 1004.6
07 13.06 В 4 20 км н/о +27.5 +16.8 52 +31 +31 душно 1007.9 1003.6
08 13.06 В 4 20 км н/о +27.3 +15.7 49 +30 +30 душно 1007.6 1003.3
09 13.06 В 2 20 км н/о +26.0 +16.0 54 +29 +29 душно 1007.8 1003.5
10 13.06 В 2 20 км н/о +25.4 +16.0 56 +29 +29 душно 1008.6 1004.3
11 13.06 ЮВ 3 20 км н/о +24.6 +17.1 63 +28 +28 душно 1008.9 1004.6
12 13.06 В 2 20 км н/о +24.0 +18.0 69 +28 +28 душно 1009.2 1004.9 +28.8
13 13.06 ЮВ 2 20 км н/о +23.4 +18.5 74 +30 +30 очень
душно
1009.5 1005.1
14 13.06 ЮВ 2 18 км н/о +23.1 +19.3 79 +29 +29 очень
душно
1009.6 1005.2
15 13.06 Ю 1 15 км н/о +22.6 +19.2 81 +29 +29 очень
душно
1009.1 1004.7
16 13.06 С 1 16 км в посл. час туман н/о +22.4 +19.0 81 +28 +28 душно 1008.7 1004.3
17 13.06 ЮВ 1 14 км н/о +21.8 +19.4 86 +27 +27 душно 1008.2 1003.8
18 13.06 Ю 2 12 км {туман} н/о +21.6 +19.4 87 +27 +27 душно 1007.8 1003.4
19 13.06 ЮВ 1 14 км н/о +21.3 +17.9 81 +25 +25 комфорт 1007.4 1003.0
20 13.06 ЮВ 2 20 км н/о +21.5 +17.7 79 +26 +26 душно 1007.0 1002.6
21 13.06 Ю 1 15 км н/о +21.1 +18.3 84 +25 +25 комфорт 1007.3 1002.9
22 13.06 Ю 2 19 км н/о +21.4 +17.8 80 +26 +26 душно 1007.1 1002.7
23 13.06 Ю 1 20 км н/о +21.6 +17.6 78 +26 +26 душно 1006.3 1001.9
00 14.06 ЮВ 2 20 км н/о +22.6 +18.4 77 +28 +28 душно 1006.2 1001.8 +21.0
02 14.06 В 1 20 км н/о +23.2 +18.1 73 +29 +29 душно 1005.5 1001.2
03 14.06 В 2 19 км в посл. час дождь н/о +23.3 +17.8 71 +29 +29 душно 1004.9 1000.6
04 14.06 В 3 18 км в посл. час дождь н/о +23.3 +18.0 72 +29 +29 душно 1003.9 999.6
05 14.06 В 3 17 км в посл. час дождь н/о +23.3 +18.0 72 +29 +29 душно 1003.2 998.9
06 14.06 В 3 7000 м слаб. дождь н/о +21.1 +18.7 86 +25 +25 комфорт 1003.0 998.6 0.0
07 14.06 С 1 4000 м слаб. дождь н/о +20.2 +19.2 94 +25 +25 комфорт 1003.1 998.7
08 14.06 С 2 12 км слаб. дождь н/о +20.0 +19.4 96 +24 +24 комфорт 1001.8 997.4
09 14.06 СВ 2 12 км слаб. дождь н/о +20.1 +18.9 93 +24 +24 комфорт 1001.3 996.9
10 14.06 С 2 8000 м слаб. дождь н/о +20.2 +19.2 94 +25 +25 комфорт 1001.2 996.8
11 14.06 С 1 4100 м слаб. дождь н/о +20.0 +19.9 99 +25 +25 комфорт 1000.7 996.3
12 14.06 СВ 2 7000 м слаб. дождь н/о +19.9 +19.3 96 +24 +24 комфорт 1000.2 995.8 +23.6 3
13 14.06 СВ 3 8000 м слаб. дождь н/о +19.8 +19.2 96 +23 +23 комфорт 1000.1 995.7
14 14.06 СВ 4 4500 м слаб. дождь н/о +19.4 +18.8 96 +22 +22 комфорт 999.6 995.2
15 14.06 СВ 3 14 км слаб. дождь н/о +19.8 +18.8 94 +23 +23 комфорт 998.3 993.9
16 14.06 СВ 2 4600 м слаб. дождь н/о +19.7 +19.1 96 +23 +23 комфорт 997.4 993.0
17 14.06 СВ 2 16 км слаб. дождь н/о +19.7 +18.9 95 +23 +23 комфорт 996.1 991.7
18 14.06 СВ 2 4900 м слаб. дождь н/о +19.2 +18.6 96 +22 +22 комфорт 995.8 991.4 1
19 14.06 СВ 1 3200 м дождь н/о +18.9 +18.6 98 +22 +22 комфорт 995.9 991.5
20 14.06 С 3 9000 м слаб. дождь н/о +18.8 +18.6 99 +21 +21 комфорт 996.0 991.6
21 14.06 С 3 4400 м дождь н/о +18.6 +18.6 100 +20 +20 996.4 992.0
22 14.06 С 2 4400 м слаб. дождь н/о +18.6 +18.6 100 +20 +20 996.0 991.6
23 14.06 С 2 10 км слаб. дождь н/о +18.8 +18.5 98 +21 +21 комфорт 995.9 991.5
00 15.06 СЗ 2 10 км слаб. дождь н/о +19.2 +18.7 97 +22 +22 комфорт 995.7 991.3 +18.4 21
01 15.06 СЗ 3 9000 м слаб. дождь н/о +19.2 +18.6 96 +22 +22 комфорт 995.6 991.2
02 15.06 С 4 13 км слаб. дождь н/о +19.2 +18.6 96 +21 +21 комфорт 995.9 991.5
03 15.06 С 3 7000 м дождь н/о +18.9 +18.4 97 +21 +21 комфорт 996.3 991.9
04 15.06 СЗ 4 6000 м дождь н/о +19.1 +18.6 97 +21 +21 комфорт 996.5 992.1
05 15.06 СЗ 5 8000 м слаб. дождь н/о +18.7 +17.7 94 +19 +19 997.0 992.6
06 15.06 СЗ 4 20 км в посл. час дождь н/о +19.4 +18.1 92 +22 +22 комфорт 997.2 992.8 18
07 15.06 СЗ 4 19 км слаб. дождь н/о +19.8 +17.6 87 +23 +23 комфорт 997.0 992.6
08 15.06 СЗ 3 20 км в посл. час дождь н/о +20.3 +17.1 82 +24 +24 комфорт 997.5 993.1
09 15.06 СЗ 3 20 км {дождь} н/о +20.7 +16.9 79 +25 +25 комфорт 998.4 994.0
10 15.06 З 2 20 км н/о +20.0 +15.5 75 +23 +23 комфорт 999.0 994.6
11 15.06 ЮЗ 2 20 км н/о +19.8 +15.9 78 +23 +23 комфорт 999.8 995.4
12 15.06 ЮЗ 2 20 км {дождь} н/о +19.8 +15.9 78 +23 +23 комфорт 1000.1 995.7 +21.0 18
13 15.06 Ю 2 20 км н/о +19.1 +16.2 83 +21 +21 комфорт 1000.7 996.3
14 15.06 Ю 2 20 км н/о +18.8 +15.9 83 +21 +21 комфорт 1000.9 996.5
15 15.06 Ю 2 20 км н/о +19.0 +15.5 80 +21 +21 комфорт 1001.0 996.6
16 15.06 Ю 3 20 км н/о +19.2 +16.3 83 +21 +21 комфорт 1001.1 996.7
17 15.06 Ю 2 14 км н/о +19.9 +16.7 82 +23 +23 комфорт 1001.3 996.9
18 15.06 ЮЗ 4 11 км слаб. дождь н/о +20.3 +16.9 81 +24 +24 комфорт 1001.5 997.1 0.0
19 15.06 Ю 2 11 км в посл. час дождь н/о +19.8 +16.7 82 +23 +23 комфорт 1001.8 997.4
20 15.06 Ю 2 9000 м дымка н/о +19.3 +17.1 87 +22 +22 комфорт 1002.7 998.3
21 15.06 В 1 6000 м слаб. дождь н/о +18.7 +17.4 92 +21 +21 комфорт 1003.4 999.0
22 15.06 С 2 7000 м слаб. дождь н/о +18.9 +18.1 95 +21 +21 комфорт 1004.5 1000.1
23 15.06 С 3 20 км в посл. час дождь н/о +20.7 +17.7 83 +25 +25 комфорт 1005.2 1000.8
00 16.06 СЗ 3 20 км {дождь} н/о +21.6 +17.4 77 +26 +26 душно 1005.6 1001.2 +18.4 0.5

 

Местоположение метеостанции Иидзука (Япония): широта 33.65 долгота 130.69 высота над уровнем моря 38 м.

В архиве по умолчанию представлена погода в Иидзуке за последнюю неделю. Архивные данные за месяц целиком и за предыдущие месяцы, начиная с января 2011 года, Вы можете получить, выбрав интересующий диапазон дат из раскрывающегося списка и нажав кнопку "Ввод!".


*Определитесь, кто Вы:
робот инопланетянин человек

Внимание! Время в таблицах - всемирное. Для получения местного времени необходимо прибавить поправку, которая равна 9 ч.

Смотрите также архив погоды в соседних городах и на ближайших метеорологических станциях:

Погода в Фукуоке (Япония) (30 км)
Погода в Симоносеки (Япония) (40 км)
Погода в Хите (Япония) (43 км)
Погода в Саге (Япония) (56 км)
Погода в Ямагути (Япония) (91 км)
Погода на Асо (Япония) (92 км)
Погода в Кумамото (Япония) (92 км)
Погода в Оите (Япония) (97 км)
Погода в Сасебо (Япония) (105 км)
Погода в Хаги (Япония) (108 км)

Пояснения к столбцам:

Ветер - указаны скорость ветра в м/с - средняя за 10 мин, порывы в срок и между сроками (в фигурных скобках) и направление, откуда дует ветер: С - северный, СВ - северо-восточный, В - восточный, ЮВ - юго-восточный, Ю - южный, ЮЗ - юго-западный, З - западный, СЗ - северо-западный.
Видимость - горизонтальная дальность видимости в метрах или километрах. При видимости от 1 до 10 км при отсутствии осадков обычно наблюдается дымка, при ухудшении видимости до 1 км и менее - туман. В сухую погоду видимость может ухудшаться дымом, пылью или мглою.
Явления - указаны атмосферные явления, наблюдавшиеся в срок или в последний час перед сроком; фигурными скобками обозначены явления, наблюдавшиеся между сроками (за 1-3 часа до срока); квадратными скобками обозначены град или гололедные отложения с указанием их диаметра в мм.
Облачность - указаны через наклонную черту общая и нижняя облачность в баллах и высота нижней границы облаков в метрах; квадратными скобками обозначены формы облаков: Ci - перистые, Cs - перисто-слоистые, Cc - перисто-кучевые, Ac - высококучевые, As - высокослоистые, Sc - слоисто-кучевые, Ns - слоисто-дождевые, Cu - кучевые, Cb - кучево-дождевые. Подробнее классификацию облаков см. в Атласе облаков (PDF).
T - Температура воздуха - температура, измеренная на высоте 2 м над землей.
Td - Температура точки росы - температура, при понижении до которой содержащийся в воздухе водяной пар достигнет насыщения.
f - Относительная влажность воздуха - влажноcть воздуха, измеренная на высоте 2 м над землей.
Te - Эффективная температура - температура, которую ощущает одетый по сезону человек в тени. Характеристика душности погоды. При расчете учитывается влияние влажности воздуха и скорости ветра на теплоощущения человека.
Tes - Эффективная температура на солнце - температура, которую ощущает человек, с поправкой на солнечный нагрев. Характеристика знойности погоды. Зависит от высоты солнца над горизонтом, облачности и скорости ветра. Ночью, в пасмурную погоду, а также при ветре 12 м/с и более поправка равна нулю.
P - Атмосферное давление - приведенное к уровню моря атмосферное давление.
Po - Атмосферное давление - измеренное на уровне метеостанции атмосферное давление.
Tmin - Минимальная температура - минимум температуры воздуха на высоте 2 м над землей.
Tmax - Максимальная температура - максимум температуры воздуха на высоте 2 м над землей.
R - Количество осадков - Количество выпавших осадков за период времени, мм. При наведении курсора мыши на число - период времени, за который выпало указанное количество осадков.
R24 - Количество осадков - Количество выпавших осадков за 24 часа, мм.
S - Снежный покров - Высота снежного покрова, см. При наведении курсора мыши на число - состояние снежного покрова и степень покрытия местности в баллах.